Time,TemperatureF,DewpointF,PressureIn,WindDirection,WindDirectionDegrees,WindSpeedMPH,WindSpeedGustMPH,Humidity,HourlyPrecipIn,Conditions,Clouds,dailyrainin,SoftwareType,DateUTC
2013-05-15 00:00:00,41.9,31.4,30.00,NNW,344,0.0,0.0,66,0.00,,,-99.99,VWS V12.06,2013-05-15 04:00:00,
2013-05-15 00:15:00,41.6,31.1,30.00,NNW,344,0.0,0.0,66,0.00,,,-99.99,VWS V12.06,2013-05-15 04:15:00,
2013-05-15 00:30:00,41.1,31.7,30.00,NNW,344,0.0,0.0,69,0.00,,,-99.99,VWS V12.06,2013-05-15 04:30:00,
2013-05-15 00:45:00,40.6,31.6,30.01,NNW,344,0.0,0.0,70,0.00,,,-99.99,VWS V12.06,2013-05-15 04:45:00,
2013-05-15 01:00:00,40.2,31.6,30.00,NNW,344,0.0,0.0,71,0.00,,,-99.99,VWS V12.06,2013-05-15 05:00:00,
2013-05-15 01:15:00,39.8,31.9,30.00,NNW,344,0.0,0.0,73,0.00,,,-99.99,VWS V12.06,2013-05-15 05:15:00,
2013-05-15 01:30:00,39.5,31.2,30.00,NNW,344,0.0,0.0,72,0.00,,,-99.99,VWS V12.06,2013-05-15 05:30:00,
2013-05-15 01:45:00,39.3,31.4,30.00,NNW,344,0.0,0.0,73,0.00,,,-99.99,VWS V12.06,2013-05-15 05:45:00,
2013-05-15 02:00:00,39.2,31.3,30.00,NNW,344,0.0,0.0,73,0.00,,,-99.99,VWS V12.06,2013-05-15 06:00:00,
2013-05-15 02:15:00,38.9,30.7,30.00,NNW,344,0.0,0.0,72,0.00,,,-99.99,VWS V12.06,2013-05-15 06:15:00,
2013-05-15 02:30:00,38.9,30.7,30.00,NNW,344,0.0,0.0,72,0.00,,,-99.99,VWS V12.06,2013-05-15 06:30:00,
2013-05-15 02:45:00,39.1,30.5,30.00,NNW,344,0.0,0.0,71,0.00,,,-99.99,VWS V12.06,2013-05-15 06:45:00,
2013-05-15 03:00:00,39.1,30.5,30.00,NNW,344,0.0,0.0,71,0.00,,,-99.99,VWS V12.06,2013-05-15 07:00:00,
2013-05-15 03:15:00,39.1,30.9,29.99,NNW,344,0.0,0.0,72,0.00,,,-99.99,VWS V12.06,2013-05-15 07:15:00,
2013-05-15 03:30:00,38.9,30.3,29.99,NNW,344,0.0,0.0,71,0.00,,,-99.99,VWS V12.06,2013-05-15 07:30:00,
2013-05-15 03:45:00,38.8,30.2,30.00,NNW,344,0.0,0.0,71,0.00,,,-99.99,VWS V12.06,2013-05-15 07:45:00,
2013-05-15 04:00:00,38.5,29.9,30.00,NNW,344,0.0,0.0,71,0.00,,,-99.99,VWS V12.06,2013-05-15 08:00:00,
2013-05-15 04:15:00,38.3,29.7,30.00,NNW,344,0.0,0.0,71,0.00,,,-99.99,VWS V12.06,2013-05-15 08:15:00,
2013-05-15 04:30:00,38.0,29.8,29.99,NNW,344,0.0,0.0,72,0.00,,,-99.99,VWS V12.06,2013-05-15 08:30:00,
2013-05-15 04:45:00,37.9,29.4,29.99,NNW,344,0.0,0.0,71,0.00,,,-99.99,VWS V12.06,2013-05-15 08:45:00,
2013-05-15 05:00:00,38.2,28.6,29.99,NNW,344,0.0,0.0,68,0.00,,,-99.99,VWS V12.06,2013-05-15 09:00:00,
2013-05-15 05:15:00,38.2,28.9,29.99,NNW,344,0.0,0.0,69,0.00,,,-99.99,VWS V12.06,2013-05-15 09:15:00,
2013-05-15 05:30:00,38.0,29.1,29.99,NNW,344,0.0,0.0,70,0.00,,,-99.99,VWS V12.06,2013-05-15 09:30:00,
2013-05-15 05:45:00,38.2,28.9,29.99,NNW,344,0.0,0.0,69,0.00,,,-99.99,VWS V12.06,2013-05-15 09:45:00,
2013-05-15 06:00:00,38.6,29.0,29.99,NNW,344,0.0,0.0,68,0.00,,,-99.99,VWS V12.06,2013-05-15 10:00:00,
2013-05-15 06:15:00,39.3,29.6,29.99,NNW,344,0.0,0.0,68,0.00,,,-99.99,VWS V12.06,2013-05-15 10:15:00,
2013-05-15 06:30:00,40.5,31.9,29.99,NNW,344,0.0,0.0,71,0.00,,,-99.99,VWS V12.06,2013-05-15 10:30:00,
2013-05-15 06:45:00,42.8,32.6,29.99,NNW,344,0.0,0.0,67,0.00,,,-99.99,VWS V12.06,2013-05-15 10:45:00,
2013-05-15 07:15:00,49.5,30.6,29.98,NNW,344,0.0,0.0,48,0.00,,,-99.99,VWS V12.06,2013-05-15 11:15:00,
2013-05-15 08:00:00,52.0,30.8,29.98,NNW,344,0.0,1.0,44,0.00,,,-99.99,VWS V12.06,2013-05-15 12:00:00,
2013-05-15 08:30:00,52.9,29.9,29.97,ESE,103,0.0,2.0,41,0.00,,,-99.99,VWS V12.06,2013-05-15 12:30:00,
2013-05-15 08:45:00,54.1,29.7,29.97,SSE,161,0.0,1.0,39,0.00,,,-99.99,VWS V12.06,2013-05-15 12:45:00,
2013-05-15 09:00:00,54.8,29.0,29.96,WSW,241,0.0,2.0,37,0.00,,,-99.99,VWS V12.06,2013-05-15 13:00:00,
2013-05-15 09:15:00,55.6,30.4,29.95,SE,140,0.0,1.0,38,0.00,,,-99.99,VWS V12.06,2013-05-15 13:15:00,
2013-05-15 09:30:00,56.0,31.4,29.95,SE,140,0.0,2.0,39,0.00,,,-99.99,VWS V12.06,2013-05-15 13:30:00,
2013-05-15 09:45:00,57.3,32.6,29.95,SW,230,0.0,1.0,39,0.00,,,-99.99,VWS V12.06,2013-05-15 13:45:00,
2013-05-15 10:00:00,58.9,33.4,29.94,SW,216,0.0,1.0,38,0.00,,,-99.99,VWS V12.06,2013-05-15 14:00:00,
2013-05-15 10:15:00,59.3,35.0,29.93,SE,137,0.0,2.0,40,0.00,,,-99.99,VWS V12.06,2013-05-15 14:15:00,
2013-05-15 10:30:00,60.2,33.2,29.93,WNW,292,0.0,1.0,36,0.00,,,-99.99,VWS V12.06,2013-05-15 14:30:00,
2013-05-15 10:45:00,59.8,32.8,29.93,WNW,292,2.0,3.0,36,0.00,,,-99.99,VWS V12.06,2013-05-15 14:45:00,
2013-05-15 11:00:00,59.5,34.5,29.92,SE,131,0.0,5.0,39,0.00,,,-99.99,VWS V12.06,2013-05-15 15:00:00,
2013-05-15 11:15:00,59.2,34.3,29.92,ESE,116,1.0,6.0,39,0.00,,,-99.99,VWS V12.06,2013-05-15 15:15:00,
2013-05-15 11:30:00,59.6,31.2,29.92,South,174,1.0,7.0,34,0.00,,,-99.99,VWS V12.06,2013-05-15 15:30:00,
2013-05-15 11:45:00,60.1,32.4,29.92,South,188,1.0,2.0,35,0.00,,,-99.99,VWS V12.06,2013-05-15 15:45:00,
2013-05-15 12:00:00,59.0,30.7,29.91,SW,236,0.0,2.0,34,0.00,,,-99.99,VWS V12.06,2013-05-15 16:00:00,
2013-05-15 12:30:00,60.2,35.8,29.90,SE,124,1.0,1.0,40,0.00,,,-99.99,VWS V12.06,2013-05-15 16:30:00,
2013-05-15 12:45:00,60.5,38.5,29.89,WNW,298,0.0,3.0,44,0.00,,,-99.99,VWS V12.06,2013-05-15 16:45:00,
2013-05-15 13:00:00,60.7,38.1,29.89,South,172,0.0,0.0,43,0.00,,,-99.99,VWS V12.06,2013-05-15 17:00:00,
2013-05-15 13:15:00,60.5,37.3,29.87,South,191,1.0,3.0,42,0.00,,,-99.99,VWS V12.06,2013-05-15 17:15:00,
2013-05-15 13:30:00,62.1,38.1,29.87,SW,233,0.0,3.0,41,0.00,,,-99.99,VWS V12.06,2013-05-15 17:30:00,
2013-05-15 13:45:00,60.9,36.4,29.85,South,171,0.0,3.0,40,0.00,,,-99.99,VWS V12.06,2013-05-15 17:45:00,
2013-05-15 14:00:00,61.3,36.2,29.84,SSE,150,0.0,3.0,39,0.00,,,-99.99,VWS V12.06,2013-05-15 18:00:00,
2013-05-15 14:15:00,60.2,37.0,29.82,West,274,0.0,1.0,42,0.00,,,-99.99,VWS V12.06,2013-05-15 18:15:00,
2013-05-15 14:30:00,59.5,37.6,29.82,SSW,206,1.0,3.0,44,0.00,,,-99.99,VWS V12.06,2013-05-15 18:30:00,
2013-05-15 14:45:00,58.9,36.5,29.81,WNW,291,1.0,5.0,43,0.00,,,-99.99,VWS V12.06,2013-05-15 18:45:00,
2013-05-15 15:00:00,58.1,36.9,29.81,South,182,1.0,3.0,45,0.00,,,-99.99,VWS V12.06,2013-05-15 19:00:00,
2013-05-15 15:15:00,55.7,41.6,29.81,South,172,0.0,2.0,59,0.01,,,-99.99,VWS V12.06,2013-05-15 19:15:00,
2013-05-15 15:45:00,52.0,45.0,29.80,SSW,200,0.0,0.0,77,0.03,,,-99.99,VWS V12.06,2013-05-15 19:45:00,
2013-05-15 16:00:00,52.3,46.0,29.78,SSE,167,0.0,2.0,79,0.04,,,-99.99,VWS V12.06,2013-05-15 20:00:00,
2013-05-15 16:15:00,53.2,47.2,29.75,NNE,18,0.0,6.0,80,0.04,,,-99.99,VWS V12.06,2013-05-15 20:15:00,
2013-05-15 16:30:00,54.4,48.0,29.74,SSE,155,2.0,6.0,79,0.04,,,-99.99,VWS V12.06,2013-05-15 20:30:00,
2013-05-15 17:00:00,53.2,48.8,29.72,SE,136,2.0,6.0,85,0.02,,,-99.99,VWS V12.06,2013-05-15 21:00:00,
2013-05-15 17:15:00,53.1,49.3,29.71,SSE,168,1.0,5.0,87,0.00,,,-99.99,VWS V12.06,2013-05-15 21:15:00,
2013-05-15 17:30:00,53.1,49.3,29.71,SSE,168,2.0,3.0,87,0.00,,,-99.99,VWS V12.06,2013-05-15 21:30:00,
2013-05-15 17:45:00,53.3,49.8,29.70,South,185,2.0,4.0,88,0.00,,,-99.99,VWS V12.06,2013-05-15 21:45:00,
2013-05-15 18:00:00,53.5,50.0,29.68,SSE,164,0.0,1.0,88,0.00,,,-99.99,VWS V12.06,2013-05-15 22:00:00,
2013-05-15 18:15:00,53.8,50.3,29.68,South,176,0.0,6.0,88,0.00,,,-99.99,VWS V12.06,2013-05-15 22:15:00,
2013-05-15 18:30:00,53.9,50.1,29.65,SE,134,2.0,5.0,87,0.00,,,-99.99,VWS V12.06,2013-05-15 22:30:00,
2013-05-15 19:15:00,54.1,50.3,29.68,NNE,32,0.0,2.0,87,0.00,,,-99.99,VWS V12.06,2013-05-15 23:15:00,
2013-05-15 19:30:00,54.2,50.1,29.67,NE,34,0.0,2.0,86,0.00,,,-99.99,VWS V12.06,2013-05-15 23:30:00,
2013-05-15 19:45:00,54.2,50.1,29.67,NNE,32,0.0,0.0,86,0.00,,,-99.99,VWS V12.06,2013-05-15 23:45:00,
2013-05-15 20:00:00,54.2,50.1,29.65,South,189,0.0,3.0,86,0.00,,,-99.99,VWS V12.06,2013-05-16 00:00:00,
2013-05-15 20:30:00,54.1,50.0,29.63,South,172,0.0,0.0,86,0.00,,,-99.99,VWS V12.06,2013-05-16 00:30:00,
2013-05-15 20:45:00,54.1,50.3,29.64,SSE,165,0.0,1.0,87,0.00,,,-99.99,VWS V12.06,2013-05-16 00:45:00,
2013-05-15 21:00:00,53.8,50.0,29.63,SSE,165,0.0,2.0,87,0.00,,,-99.99,VWS V12.06,2013-05-16 01:00:00,
2013-05-15 21:15:00,53.6,50.1,29.63,SSE,165,0.0,2.0,88,0.00,,,-99.99,VWS V12.06,2013-05-16 01:15:00,
2013-05-15 21:30:00,53.5,50.0,29.63,South,171,0.0,2.0,88,0.00,,,-99.99,VWS V12.06,2013-05-16 01:30:00,
2013-05-15 22:00:00,53.1,50.2,29.63,SSE,160,0.0,1.0,90,0.00,,,-99.99,VWS V12.06,2013-05-16 02:00:00,
2013-05-15 22:15:00,52.9,50.0,29.62,SSE,160,0.0,0.0,90,0.00,,,-99.99,VWS V12.06,2013-05-16 02:15:00,
2013-05-15 22:30:00,52.8,50.2,29.62,SSE,160,0.0,0.0,91,0.00,,,-99.99,VWS V12.06,2013-05-16 02:30:00,
2013-05-15 22:45:00,52.8,50.2,29.63,SSE,160,0.0,0.0,91,0.00,,,-99.99,VWS V12.06,2013-05-16 02:45:00,
2013-05-15 23:00:00,53.2,50.9,29.63,SE,144,0.0,2.0,92,0.00,,,-99.99,VWS V12.06,2013-05-16 03:00:00,
2013-05-15 23:30:00,54.1,50.9,29.62,NE,34,0.0,1.0,89,0.00,,,-99.99,VWS V12.06,2013-05-16 03:30:00,
2013-05-15 23:45:00,54.1,50.6,29.62,West,281,0.0,2.0,88,0.00,,,-99.99,VWS V12.06,2013-05-16 03:45:00,